This is the latest recevied weather packets stored in our database for station/object HS6PNA-1. If no packets are shown the sender has not sent any weather packets the latest 10 day(s).
| Time | Temp. | Humidity | Pressure | Rain* | Wind** | Luminosity | Snow |
|---|---|---|---|---|---|---|---|
| 1777788279 | 40.56° C | 36% | 1003 hPa | - | - | 313 W/m² | - |
| 1777787355 | 40.56° C | 36% | 1003 hPa | - | - | 381 W/m² | - |
| 1777786430 | 39.44° C | 39% | 1004 hPa | - | - | 431 W/m² | - |
| 1777785508 | 39.44° C | 43% | 1004 hPa | - | - | 370 W/m² | - |
| 1777784581 | 38.33° C | 43% | 1004 hPa | - | - | 365 W/m² | - |
| 1777783656 | 38.89° C | 40% | 1004 hPa | - | - | 431 W/m² | - |
| 1777782732 | 38.89° C | 42% | 1005 hPa | - | - | 431 W/m² | - |
| 1777781807 | 37.78° C | 45% | 1005 hPa | - | - | 388 W/m² | - |
| 1777780883 | 37.78° C | 45% | 1005 hPa | - | - | 370 W/m² | - |
| 1777779958 | 37.78° C | 48% | 1005 hPa | - | - | 226 W/m² | - |
| 1777779034 | 36.67° C | 51% | 1006 hPa | - | - | 292 W/m² | - |
| 1777778109 | 36.67° C | 54% | 1006 hPa | - | - | 300 W/m² | - |
| 1777777185 | 35.56° C | 56% | 1006 hPa | - | - | 234 W/m² | - |
| 1777776260 | 35.56° C | 58% | 1006 hPa | - | - | 159 W/m² | - |
| 1777775336 | 35° C | 58% | 1006 hPa | - | - | 148 W/m² | - |
| 1777774411 | 34.44° C | 62% | 1006 hPa | - | - | 133 W/m² | - |
| 1777773486 | 33.89° C | 65% | 1006 hPa | - | - | 145 W/m² | - |
| 1777772562 | 33.33° C | 66% | 1006 hPa | - | - | 99 W/m² | - |
| 1777771637 | 33.33° C | 70% | 1006 hPa | - | - | 71 W/m² | - |
| 1777770712 | 32.22° C | 71% | 1005 hPa | - | - | 57 W/m² | - |
| 1777769787 | 32.22° C | 73% | 1005 hPa | - | - | 53 W/m² | - |
| 1777768863 | 32.22° C | 73% | 1005 hPa | - | - | 46 W/m² | - |
| 1777767938 | 31.67° C | 75% | 1005 hPa | - | - | 33 W/m² | - |
| 1777766948 | 31.11° C | 75% | 1005 hPa | - | - | 27 W/m² | - |
| 1777766023 | 31.11° C | 75% | 1005 hPa | - | - | 21 W/m² | - |
* Rain since midnight (hover to see other rain measurements)
** Current wind speed in m/s (hover to see current wind gust speed)